Tracking 35331 objects as of 15-Sep-2026
HD Live streaming from Space Station
objects crossing your sky now

COSMOS 1155 DEB


COSMOS 1155 DEB is no longer on orbit


NORAD ID: 11712
Int'l Code: 1980-009D
Launch date: February 7, 1980
Source: Commonwealth of Independent States (former USSR) (CIS)
Launch site: PLESETSK MISSILE AND SPACE COMPLEX (PKMTR)
Decay date: 1980-03-02

Note: This is SATELLITE DEBRIS
Your satellite tracking list
Your tracking list is empty




NASA's NSSDC Master Catalog

Two Line Element Set (TLE):
1 11712U 80009  D 80062.50838470  .10792048 +04770-6 +01281-4 0  9991
2 11712 072.8381 247.7508 0018585 071.1625 289.1633 16.24829483003793
Source of the keplerian elements: AFSPC